Regional Weather Roundup
Issued by NWS Wakefield, VA

Home | Current Version | Previous Version | Text Only | Print | Product List | Glossary On
Versions: 1 2 3 4 5 6 7 8 9 10 11 12 13 14 15 16 17 18 19 20 21 22 23 24 25 26 27 28 29 30 31 32 33 34 35 36 37 38 39 40 41 42 43 44 45 46 47 48 49 50
443
ASUS41 KAKQ 261215
RWRAKQ

REGIONAL WEATHER ROUNDUP
NATIONAL WEATHER SERVICE WAKEFIELD VA
800 AM EDT MON SEP 26 2016

Note: "fair" indicates few or no clouds below 12,000 feet with no
significant weather and/or obstructions to visibility. * = Denotes
station may not report precipitation (e.g., rain,snow,etc.),
thunder or fog.

VAZ042-051-052>054-056-261300-
NORTHERN VIRGINIA

CITY           SKY/WX    TMP DP  RH WIND       PRES   REMARKS
WASH NATIONAL  CLOUDY    67  59  75 S8        30.14S
DULLES         CLOUDY    64  55  72 S6        30.13S
FORT BELVOIR   CLOUDY    62  59  91 SE2       30.13S
QUANTICO       CLOUDY    67  57  70 SW7       30.14S
FREDERICKSBRG* CLOUDY    64  59  86 S5        30.13S
STAFFORD*      CLOUDY    62  58  88 CALM      30.17F
WARRENTON      CLOUDY    64  54  70 CALM      30.13R
CULPEPER*      CLOUDY    63  60  87 CALM      30.14S
MANASSAS*      CLOUDY    63  59  88 CALM      30.13S
LEESBURG*      CLOUDY    63  59  88 SE3       30.14S
WINCHESTER     CLOUDY    63  55  77 SE8       30.10S
FRONT ROYAL*   CLOUDY    61  59  94 CALM      30.09S
LURAY*         CLOUDY    63  63 100 CALM      30.11S
$$

VAZ048-049-060>072-079>083-261300-
CENTRAL AND SOUTH CENTRAL VIRGINIA

CITY           SKY/WX    TMP DP  RH WIND       PRES   REMARKS
RICHMOND       CLOUDY    64  59  83 SE3       30.15R
CHESTERFIELD*  CLOUDY    64  46  52 S5        30.16R
PETERSBURG*    CLOUDY    66  63  90 CALM      30.15S
HANOVER        CLOUDY    64  58  80 CALM      30.16R
TAPPAHANNOCK*  CLOUDY    64  63  97 CALM      30.15S
QUINTON*       CLOUDY    64  60  88 MISG      30.14S
CHARLOTTSVILLE CLOUDY    63  60  90 CALM      30.13S FOG
GORDONSVILLE*  CLOUDY    63  61  94 CALM      30.13S
ORANGE*          N/A     63  63 100 CALM      30.15R
LOUISA*        CLOUDY    66  64  94 CALM      30.13R
BUMPASS*       CLOUDY    62  60  91 CALM      30.14R
FARMVILLE*     CLOUDY    66  62  89 S3        30.12S
CREWE*         CLOUDY    64  64 100 CALM      30.15R
FORT PICKETT*  CLOUDY    64  63  97 CALM      30.15R
CHASE CITY*    CLOUDY    65  63  91 SE3       30.14R
CLARKSVILLE*   CLOUDY    64  61  88 CALM      30.13R
SOUTH HILL*    CLOUDY    64  62  93 CALM      30.20R
LAWRENCEVILLE* CLOUDY    64  62  93 CALM      30.15R
EMPORIA*       CLOUDY    64  59  82 CALM      30.16R
$$

VAZ088>098-261300-
SOUTHEAST VIRGINIA

CITY           SKY/WX    TMP DP  RH WIND       PRES   REMARKS
NORFOLK        MOSUNNY   66  58  75 CALM      30.15R
VIRGINIA BEACH MOSUNNY   62  58  86 CALM      30.14R
NORFOLK NAVAL  MOSUNNY   65  60  84 CALM      30.16R
WEST POINT*    CLOUDY    64  61  89 CALM      30.16S
SALUDA*        CLOUDY    64  61  90 CALM      30.15R
NEWPORT NEWS   CLOUDY    62  60  93 CALM      30.15R
LANGLEY AFB    CLOUDY    64  62  93 SE3       30.14R
FORT EUSTIS    CLOUDY    66  59  77 SE3       30.12S
WILLIAMSBURG*  MOSUNNY   68  63  83 SE3       30.16R
HR EXEC AP*    CLOUDY    61  59  94 CALM      30.17R
FRANKLIN*      CLOUDY    63  60  90 CALM      30.15S
US460-WAKEFLD  CLOUDY    64  59  83 CALM      30.15R
$$

VAZ020-022-025-037-045-261300-
WEST CENTRAL AND SOUTHWEST VIRGINIA

CITY           SKY/WX    TMP DP  RH WIND       PRES   REMARKS
STAUNTON*      CLOUDY    62  59  91 S5        30.13S
WAYNESBORO*    CLOUDY    61  59  94 E9        30.12S
HOT SPRINGS VA LGT RAIN  50  50 100 S5        30.16S VSB<1/4
LYNCHBURG      CLOUDY    63  62  97 CALM      30.15R
DANVILLE       CLOUDY    66  62  87 CALM      30.13R
SOUTH BOSTON*  CLOUDY    65  63  95 CALM      30.14R
MARTINSVILLE   DRIZZLE   64  63  97 SE3       30.15S
ROANOKE        DRZL/FOG  65  64  97 SE9       30.14R VSB 3/4
BLACKSBURG     CLOUDY    64  64  99 SE6       30.17R FOG
DUBLIN*        CLOUDY    67  67  98 CALM      30.15R
MARION*        FOG       65  64  96 E3        30.17R VSB<1/4
HILLSVILLE*    CLOUDY    64  64 100 S7        30.15S
RICHLANDS*     CLOUDY    67  64  91 S3        30.12R
WISE*          CLEAR     68  63  83 S7        30.14R
ABINGDON*      CLEAR     66  65  97 CALM      30.11R FOG
$$

MDZ021>025-VAZ099-100-261300-
SOUTHERN MARYLAND AND THE DELMARVA PENINSULA

CITY           SKY/WX    TMP DP  RH WIND       PRES   REMARKS
PATUXENT RIVER CLOUDY    66  58  75 S6        30.15R
BAY BRIDGE APT CLOUDY    64  57  77 MISG      30.15S
LEONARDTOWN    CLOUDY    63  57  82 CALM      30.16S
DOVER          SUNNY     57  57 100 S5        30.16R
GEORGETOWN     SUNNY     53  50  89 CALM      30.18R
EASTON         CLOUDY    59  55  88 SE3       30.19R
CAMBRIDGE      CLOUDY    55  54  94 CALM      30.15S
SALISBURY      SUNNY     54  51  90 CALM      30.17S
OCEAN CITY     SUNNY     66  51  58 VRB5      30.17S
WALLOPS ISLAND SUNNY     66  56  70 MISG      30.17S
ACCOMACK*      SUNNY     58  55  91 CALM      30.15S
$$

NCZ012>017-030>032-261300-
NORTH CENTRAL AND EASTERN NORTH CAROLINA

CITY           SKY/WX    TMP DP  RH WIND       PRES   REMARKS
ROANOKE RAPIDS CLOUDY    63  63 100 CALM      30.14S
RALEIGH        LGT RAIN  66  58  75 SE3       30.14R
ELIZABETH CITY SUNNY     63  62  97 CALM      30.15R
AHOSKIE*       CLOUDY    62  60  91 CALM      30.14R
EDENTON*       SUNNY     64  64  99 E5        30.14F
CURRITUCK*     SUNNY     61  61  99 CALM      30.15S
KILL DEVIL HLS NOT AVBL
MANTEO         SUNNY     67  58  72 E5        30.14S
CAPE HATTERAS  SUNNY     71  62  73 NE6       30.13R
TARBORO*       CLOUDY    65  62  92 CALM      30.15R
GOLDSBORO      PTSUNNY   65  64  96 E1        30.11S
WASHINGTON     NOT AVBL
GREENVILLE     PTSUNNY   64  61  88 CALM      30.14R
NEW BERN       SUNNY     67  59  75 E5        30.13S
WILMINGTON     SUNNY     67  62  84 NE7       30.10R
$$

VAZ048-261300-
ELSEWHERE

CITY           SKY/WX    TMP DP  RH WIND       PRES   REMARKS
HARRISBURG PA  CLOUDY    55  49  80 CALM      30.15R
BALTIMORE      PTSUNNY   61  55  81 SE3       30.14S
ANNAPOLIS      CLOUDY    67  60  78 SE7       30.14S
ANDREWS AFB    CLOUDY    63  58  84 S6        30.13S
PHILADELPHIA   PTSUNNY   58  53  84 E6        30.18S
HENDERSON NC   CLOUDY    62  57  84 CALM      30.13S
GREENSBORO     CLOUDY    67  64  90 S10       30.12S
ROCKY MOUNT    CLOUDY    65  62  90 CALM      30.13F
$$

VAZ100-261300-
MARINE

STATION/POSITION TIME  TEMP    WIND        PRES    WAVE   SWELL
                       AIR SEA DIR/SP/G            HT/PER HT/PER
                 (UTC) (F)     (DEG/KT/KT) (MB)    (FT/S) (FT/S)
BRANDYWINE LGT   1100   66     210/ 10/ 11   N/A
CAPE MAY NJ      1100   60 71  110/  2/  3 1021.2R
LEWES DE         1100   58 72  200/  4/  5 1021.5R
OCEAN-CITY-INLET 1100   66 72  160/  6/  9 1021.9S
WACHAPREAGUE VA  1100   67 73  110/  4/  5 1021.2F
THOMAS POINT MD  1200   67 74  150/ 19/ 20 1021.6F
GOOSES REEF MD   1100   67 75  160/ 12/ 16 1021.2R   1/ 3
COVE POINT MD    1100   67     220/  7/  9 1021.2R
SOLOMONS ISLAND  1100   67 76  190/  6/  8   N/A
BISHOPS HEAD MD  1100   66 69  120/ 13/ 14 1021.0S
PINEY POINT MD   1100          190/ 10/ 11   N/A
POTOMAC MD       1100   69 76  190/ 10/ 12 1019.8F   1/ 3
CAMBRIDGE MD     1100   61 75  140/  3/  6 1020.2S
LEWISETTA VA     1100   66 73  190/  5/  5 1020.3R
RAPPAHANNOCK LGT 1100          100/  9/ 10 1021.4R
STINGRAY PT      1100   69 76   80/ 10/ 12 1021.1S   1/ 2
YORK RVR RNG VA  1100   69     120/ 11/ 14 1020.0S
YORKTOWN VA      1100   65 77  210/  5/  6 1020.2S
JAMESTOWN VA     1100   68 76  150/  8/ 10   N/A     0
DOMINION TERM VA 1100   69     120/  8/  9 1020.5R
KIPTOPEKE VA     1100      76  100/  5/  6   N/A
CHES BAY BRIDGE  1100   69 76   70/ 11/ 14 1020.1F
CAPE HENRY VA    1100   69      80/ 13/ 15   N/A
WILLOUBY STN VA  1100   68     130/  8/  9   N/A
CAPE HENRY BUOY  1112      76                N/A     3/10
1ST LANDING BUOY 1100   70 75  130/ 12/ 14 1020.2F   2/ 4
CAPE CHARLES BUO 1126      76                N/A     3/10
OFFSHORE WE BUOY 1121      75                N/A     3/10
64NM E OF VA BCH 1150   71 74   60/  6/ 10 1020.5R   3/ 9   3/ 9
DUCK PIER NC     1100   70 76   60/  9/ 12 1019.9R
44056 DUCK FRF   1111      76                N/A     3/ 9
OREGON INLET NC  1100   69 76   40/  8/ 10 1020.1R
HATTERAS NC      1100   71 77   40/  6/  9 1019.4R
DIAMOND SHLS NC  1150   74 84   40/ 14/ 17 1019.2R   3/ 8   2/ 8
CAPE LOOKOUT NC  1200   74      40/ 12/ 15 1019.3R
$$




USA.gov is the U.S. government's official web portal to all federal, state and local government web resources and services.